FLOCK 3P-23 (42018 NORAD) Tracking and Keplerian Element Data

This shows tracking and keplerian element data for the satellite.

Feedback or suggestion? Click here.




ElementValue
Catalog42018
NameFLOCK 3P-23
Epoch Orbit25550
Epoch Day269.63357432
Epoch Year2021
RAAN335.4682
Inclination97.3125
Eccentricity0.0009391
Argument of Perigee84.1122
Mean Anonmoly276.1188
Mean Motion15.28540096
Decay Rate6.728E-05
L11 42018U 17008BY 21269.63357432 .00006728 00000-0 24465-3 0 9991
L22 42018 97.3125 335.4682 0009391 84.1122 276.1188 15.28540096255505

Live tracking and technical data element details for FLOCK 3P-23 (NORAD 42018). FLOCK 3P-23 can be tracked NOW for your location showing map with azimuth and elevation plus other details from your city location.

Track the satellite on the map from your city or location and see movement details for azimuth, elevation, latitude, longitude, range, height, and movement on the map or in text.







IsCatalogInMostPopularTable: catalog: 42018, numindb: 549
Update: records affected: 1



GetName: 42018 FLOCK 3P-23

Hit Count: updated at: Tue, 28 Sep 2021 15:44:05 GMT